This is the latest recevied weather packets stored in our database for station/object F5LKO-13. If no packets are shown the sender has not sent any weather packets the latest 10 day(s).
| Time | Temp. | Humidity | Pressure | Rain* | Wind** | Luminosity | Snow |
|---|---|---|---|---|---|---|---|
| 1778152469 | 21.11° C | 99% | 1014.4 hPa | 0 mm | - | 84 W/m² | - |
| 1778152172 | 21.67° C | 99% | 1014.5 hPa | 0 mm | - | 84 W/m² | - |
| 1778151858 | 21.67° C | 99% | 1014.5 hPa | 0 mm | - | 84 W/m² | - |
| 1778151551 | 22.22° C | 99% | 1014.6 hPa | 0 mm | - | 83 W/m² | - |
| 1778151244 | 21.11° C | 99% | 1014.6 hPa | 0 mm | - | 83 W/m² | - |
| 1778150939 | 20.56° C | 99% | 1014.6 hPa | 0 mm | - | 82 W/m² | - |
| 1778150633 | 20° C | 99% | 1014.7 hPa | 0 mm | - | 81 W/m² | - |
| 1778150335 | 19.44° C | 99% | 1014.8 hPa | 0 mm | - | 80 W/m² | - |
| 1778150020 | 21.11° C | 99% | 1014.8 hPa | 0 mm | - | 80 W/m² | - |
| 1778149715 | 20° C | 99% | 1014.9 hPa | 0 mm | - | 79 W/m² | - |
| 1778149407 | 20° C | 99% | 1015 hPa | 0 mm | - | 78 W/m² | - |
| 1778149102 | 19.44° C | 99% | 1015.1 hPa | 0 mm | - | 77 W/m² | - |
| 1778148796 | 20.56° C | 99% | 1015.1 hPa | 0 mm | - | 75 W/m² | - |
| 1778148498 | 20.56° C | 99% | 1015.2 hPa | 0 mm | - | 73 W/m² | - |
| 1778148183 | 21.11° C | 99% | 1015.3 hPa | 0 mm | - | 73 W/m² | - |
| 1778147876 | 20° C | 99% | 1015.4 hPa | 0 mm | - | 71 W/m² | - |
| 1778147570 | 20° C | 99% | 1015.4 hPa | 0 mm | - | 70 W/m² | - |
| 1778147264 | 20.56° C | 99% | 1015.5 hPa | 0 mm | - | 68 W/m² | - |
| 1778146958 | 20° C | 99% | 1015.5 hPa | 0 mm | - | 64 W/m² | - |
| 1778146661 | 20° C | 99% | 1015.5 hPa | 0 mm | - | 58 W/m² | - |
| 1778146346 | 20° C | 99% | 1015.6 hPa | 0 mm | - | 38 W/m² | - |
| 1778146040 | 18.89° C | 99% | 1015.6 hPa | 0 mm | - | 41 W/m² | - |
| 1778145733 | 18.33° C | 99% | 1015.6 hPa | 0 mm | - | 15 W/m² | - |
| 1778145428 | 18.89° C | 99% | 1015.6 hPa | 0 mm | - | 5 W/m² | - |
| 1778145122 | 18.33° C | 99% | 1015.5 hPa | 0 mm | - | 52 W/m² | - |
* Rain latest hour (hover to see other rain measurements)
** Current wind speed in m/s (hover to see current wind gust speed)